Regional Weather Roundup
Issued by NWS Northern Indiana

Home | Current Version | Previous Version | Text Only | Print | Product List | Glossary Off
Versions: 1 2 3 4 5 6 7 8 9 10 11 12 13 14 15 16 17 18 19 20 21 22 23 24 25 26 27 28 29 30 31 32 33 34 35 36 37 38 39 40 41 42 43 44 45 46 47 48 49 50

134
ASUS43 KIWX 271100
RWRIWX

KIWX WEATHER ROUNDUP
NATIONAL WEATHER SERVICE NORTHERN INDIANA
700 AM EDT TUE SEP 27 2016

NOTE: "FAIR" INDICATES FEW OR NO CLOUDS BELOW 12,000 FEET WITH NO
SIGNIFICANT WEATHER AND/OR OBSTRUCTIONS TO VISIBILITY.

* THESE STATIONS ARE NOT UNDER NWS QUALITY CONTROL. THEY ALSO MAY NOT
  REPORT WEATHER SUCH AS PRECIPITATION OR FOG.

INZ001>027-271200-
NORTHERN INDIANA

CITY           SKY/WX    TMP DP  RH WIND       PRES   REMARKS
GARY*          CLEAR     55  43  62 W12       29.86F
SOUTH BEND     CLEAR     48  41  76 SW9       29.85F
ELKHART*       CLEAR    N/A N/A N/A SW8       29.84
GOSHEN         CLEAR     48  40  73 SW10      29.85F
FORT WAYNE     CLEAR     47  41  80 SW9       29.89F
PERU/GRISSOM   CLEAR     51  42  71 SW13      29.89S

$$
INZ028>050-271200-
CENTRAL INDIANA

CITY           SKY/WX    TMP DP  RH WIND       PRES   REMARKS
LAFAYETTE      CLEAR     47  44  90 SW3       29.92F
MUNCIE*        CLEAR     54  41  61 SW8       29.93F
INDIANAPOLIS   CLEAR     48  43  82 SW7       29.96S

$$
MIZ043>046-050>051-056>058-064>065-071>073-077>080-271200-
SOUTHWEST LOWER MICHIGAN

CITY           SKY/WX    TMP DP  RH WIND       PRES   REMARKS
BATTLE CREEK   CLEAR     50  40  68 SW12      29.80S
BENTON HARBOR  CLEAR     62  42  47 W22G29    29.80S
COLDWATER*     CLEAR     49  38  65 SW8       29.82F
HILLSDALE*     CLEAR     46  37  71 S7        29.82F
HOLLAND        CLEAR     60  43  53 W14G21    29.75F
GRAND RAPIDS   PTCLDY    49  42  77 S12       29.74F
KALAMAZOO      CLEAR     51  39  63 SW12      29.81S
STURGIS*       CLEAR     48  40  74 SW5       29.82F
THREE RIVERS*  FAIR      50  41  71 SW7       29.82F

$$
OHZ001>008-015>018-024>025-271200-
NORTHWEST OHIO

CITY           SKY/WX    TMP DP  RH WIND       PRES   REMARKS
DEFIANCE       CLEAR     50  39  66 SW8       29.87F
FINDLAY        CLEAR     49  40  71 S10       29.89F
TOLEDO EXPRESS CLEAR     50  41  71 SW8       29.85F
TOLEDO METCALF CLEAR     50  41  71 SW9       29.87F
LIMA           CLEAR     49  42  77 S10       29.92F

$$
AND FOR LAKE MICHIGAN COASTAL AND OPEN LAKE BUOY OBSERVATIONS

STATION/POSITION TEMP    WIND        PRES    VSBY  WAVE
                 AIR SEA DIR/SP/G                  HT/PER
                 (F)     (DEG/KT/KT) (MB)    (MI)  (FT/S)
CALUMET HARBOR    54     230/  8/ 12 1010.7R
MICHIGAN CITY     54     190/ 13/ 15   N/A
BURNS HARBOR      56     240/ 17/ 20 1011.2F
SAINT JOSEPH      64     250/ 19/ 25 1009.8
SOUTH LAKE BUOY   62 70  250/ 23/ 27 1007.4          5/ 6
4 MI NW BRIDGMAN  64 66  250/ 21/ 27 1009.6F         7/ 6
MICHIGAN CITY     60 67  260/ 19/ 25   N/A           5/ 4

$$
&&




USA.gov is the U.S. government's official web portal to all federal, state and local government web resources and services.